Weather History for Lamar, CO

Change the Weather History Date:

Sunday, February 17, 2013

  Actual Average Record
Temperature  
Mean Temperature 43 °F 34 °F  
Max Temperature 71 °F 50 °F 83 °F (1970)
Min Temperature 15 °F 18 °F -13 °F (1942)
Degree Days  
Heating Degree Days 22 31  
Month to date heating degree days 495 557  
Since 1 July heating degree days 3714 3988  
Cooling Degree Days 0 0  
Month to date cooling degree days 0 0  
Year to date cooling degree days 0 0  
Moisture  
Dew Point 4 °F    
Average Humidity 31    
Maximum Humidity 56    
Minimum Humidity 5    
Precipitation  
Precipitation 0.00 in 0.01 in 0.43 in (1984)
Month to date precipitation T 0.23  
Year to date precipitation 0.02 0.53  
Sea Level Pressure  
Sea Level Pressure 29.70 in    
Wind  
Wind Speed 10 mph (WSW)    
Max Wind Speed 31 mph    
Max Gust Speed 37 mph    
Visibility 10 miles    
Events      
T = Trace of Precipitation, MM = Missing Value Source: NWS Daily Summary

Daily Weather History Graph

Daily Weather History Graph

Search for Another Location

Airport:

Trip Planner

Search our weather history database for the weather conditions in past years. The results will help you decide how hot, cold, wet, or windy it might be!

Date:

Astronomy

Feb. 17, 2013 Rise Set
Actual Time 6:38 AM MST 5:31 PM MST
Civil Twilight 6:11 AM MST 5:58 PM MST
Nautical Twilight 5:40 AM MST 6:29 PM MST
Astronomical Twilight 5:09 AM MST 7:00 PM MST
Moon 10:40 AM MST 12:22 AM MST
Length of Visible Light 11h 47m
Length of Day
10h 53m
Waxing Crescent, 49% of the Moon is Illuminated
Feb 17
Waxing Crescent
Feb 17
First Quarter
Feb 25
Full
Mar 4
Last Quarter
Mar 11
New

Hourly Weather History & Observations

Time (MST) Temp. Windchill Dew Point Humidity Pressure Visibility Wind Dir Wind Speed Gust Speed Precip Events Conditions
12:53 AM 21.9 °F - 3.9 °F 46% 29.96 in 10.0 mi Calm Calm - N/A   Clear
1:53 AM 21.0 °F 14.6 °F 3.9 °F 48% 29.95 in 10.0 mi SW 4.6 mph - N/A   Clear
2:53 AM 19.0 °F 11.1 °F 3.9 °F 52% 29.92 in 10.0 mi SW 5.8 mph - N/A   Clear
3:53 AM 19.0 °F 13.9 °F 3.9 °F 52% 29.90 in 10.0 mi SW 3.5 mph - N/A   Clear
4:53 AM 21.0 °F 12.4 °F 6.1 °F 53% 29.90 in 10.0 mi West 6.9 mph - N/A   Clear
6:53 AM 23.0 °F 14.7 °F 8.1 °F 53% 29.93 in 10.0 mi WSW 6.9 mph - N/A   Clear
7:53 AM 30.9 °F 22.8 °F 8.1 °F 38% 29.89 in 10.0 mi West 9.2 mph - N/A   Clear
8:53 AM 36.0 °F 29.0 °F 8.1 °F 31% 29.88 in 10.0 mi West 9.2 mph - N/A   Clear
9:53 AM 43.0 °F 36.0 °F 10.0 °F 26% 29.84 in 10.0 mi West 13.8 mph - N/A   Clear
10:53 AM 53.1 °F - 10.0 °F 18% 29.77 in 10.0 mi West 10.4 mph - N/A   Clear
11:53 AM 60.1 °F - 7.0 °F 12% 29.70 in 10.0 mi West 10.4 mph - N/A   Clear
12:53 PM 63.0 °F - 5.0 °F 10% 29.64 in 10.0 mi NW 4.6 mph - N/A   Clear
1:53 PM 70.0 °F - -2.9 °F 5% 29.57 in 10.0 mi SSW 17.3 mph 23.0 mph N/A   Clear
2:53 PM 70.0 °F - -4.0 °F 5% 29.53 in 10.0 mi South 18.4 mph 24.2 mph N/A   Clear
3:53 PM 66.9 °F - -2.9 °F 6% 29.50 in 10.0 mi South 15.0 mph - N/A   Clear
4:53 PM 62.1 °F - -2.9 °F 7% 29.49 in 10.0 mi South 9.2 mph - N/A   Clear
5:53 PM 52.0 °F - -0.9 °F 11% 29.51 in 10.0 mi Variable 4.6 mph - N/A   Clear
6:53 PM 46.9 °F - -0.9 °F 14% 29.51 in 10.0 mi SW 3.5 mph - N/A   Clear
7:53 PM 46.0 °F 43.1 °F -2.0 °F 14% 29.49 in 10.0 mi SSW 5.8 mph - N/A   Clear
8:53 PM 39.9 °F 33.9 °F -0.0 °F 19% 29.50 in 10.0 mi SSW 9.2 mph - N/A   Clear
10:53 PM 46.0 °F 38.0 °F 15.1 °F 29% 29.53 in 10.0 mi North 21.9 mph - N/A   Clear
11:53 PM 42.1 °F 33.3 °F 17.1 °F 37% 29.55 in 10.0 mi North 19.6 mph 28.8 mph N/A   Clear